When you browse on this site, cookies collect data to enhance your experience and personalize the content and advertising you see.
Visit our Privacy Policy to learn more. By continuing to use the site, you agree to this use of cookies and data.

Hourly Weather Corfu

Today, 14 July, Tuesday

Time Temperature Precipitation Wind Pressure Humidity
00:00 +25°C° 0 mm 4 mps 758 mmHg 69%
01:00 +23°C° 0 mm 4 mps 758 mmHg 72%
02:00 +24°C° 0 mm 3 mps 758 mmHg 71%
03:00 +24°C° 0 mm 3 mps 758 mmHg 71%
04:00 +24°C° 0 mm 2 mps 757 mmHg 71%
05:00 +25°C° 0 mm 2 mps 758 mmHg 66%
06:00 +26°C° 0 mm 2 mps 758 mmHg 61%
07:00 +27°C° 0 mm 2 mps 758 mmHg 57%
08:00 +28°C° 0 mm 2 mps 758 mmHg 55%
09:00 +29°C° 0 mm 3 mps 758 mmHg 54%
10:00 +29°C° 0 mm 3 mps 759 mmHg 53%
11:00 +30°C° 0 mm 3 mps 758 mmHg 53%
12:00 +30°C° 0 mm 3 mps 758 mmHg 54%
13:00 +30°C° 0 mm 3 mps 758 mmHg 54%
14:00 +29°C° 0 mm 3 mps 758 mmHg 56%
15:00 +29°C° 0 mm 3 mps 758 mmHg 57%
16:00 +29°C° 0 mm 2 mps 758 mmHg 59%
17:00 +27°C° 0 mm 2 mps 758 mmHg 64%
18:00 +26°C° 0 mm 2 mps 758 mmHg 70%
19:00 +25°C° 0 mm 2 mps 758 mmHg 75%
20:00 +24°C° 0 mm 2 mps 759 mmHg 78%
21:00 +24°C° 0 mm 2 mps 759 mmHg 81%
22:00 +23°C° 0 mm 2 mps 759 mmHg 84%
23:00 +23°C° 0 mm 2 mps 760 mmHg 85%

Tomorrow, 15 July, Wednesday

Time Temperature Precipitation Wind Pressure Humidity
00:00 +23°C° 0 mm 2 mps 760 mmHg 86%
01:00 +21°C° 0 mm 2 mps 760 mmHg 87%
02:00 +22°C° 0 mm 1 mps 760 mmHg 86%
03:00 +22°C° 0 mm 1 mps 760 mmHg 86%
04:00 +22°C° 0 mm 1 mps 759 mmHg 86%
05:00 +23°C° 0 mm 1 mps 760 mmHg 80%
06:00 +25°C° 0 mm 1 mps 760 mmHg 73%
07:00 +26°C° 0 mm 1 mps 760 mmHg 67%
08:00 +27°C° 0 mm 1 mps 761 mmHg 63%
09:00 +28°C° 0 mm 2 mps 761 mmHg 60%
10:00 +29°C° 0 mm 2 mps 761 mmHg 56%
11:00 +29°C° 0 mm 2 mps 761 mmHg 56%
12:00 +29°C° 0 mm 2 mps 761 mmHg 56%
13:00 +29°C° 0 mm 2 mps 761 mmHg 56%
14:00 +29°C° 0 mm 3 mps 760 mmHg 57%
15:00 +28°C° 0 mm 3 mps 760 mmHg 59%
16:00 +28°C° 0 mm 3 mps 760 mmHg 60%
17:00 +27°C° 0 mm 2 mps 760 mmHg 66%
18:00 +26°C° 0 mm 1 mps 760 mmHg 71%
19:00 +25°C° 0 mm 1 mps 760 mmHg 77%
20:00 +24°C° 0 mm 1 mps 760 mmHg 79%
21:00 +24°C° 0 mm 1 mps 761 mmHg 81%
22:00 +21°C° 0 mm 0 mps 761 mmHg 84%
23:00 +23°C° 0 mm 1 mps 761 mmHg 83%

Day after tomorrow, 16 July, Thursday

Time Temperature Precipitation Wind Pressure Humidity
00:00 +23°C° 0 mm 1 mps 760 mmHg 83%
01:00 +22°C° 0 mm 1 mps 760 mmHg 82%
02:00 +22°C° 0 mm 1 mps 760 mmHg 81%
03:00 +21°C° 0 mm 2 mps 760 mmHg 81%
04:00 +21°C° 0 mm 2 mps 759 mmHg 80%
05:00 +24°C° 0 mm 2 mps 759 mmHg 74%
06:00 +25°C° 0 mm 2 mps 759 mmHg 68%
07:00 +27°C° 0 mm 2 mps 759 mmHg 61%
08:00 +27°C° 0 mm 2 mps 759 mmHg 59%
09:00 +28°C° 0 mm 2 mps 759 mmHg 57%
10:00 +29°C° 0 mm 2 mps 759 mmHg 55%
11:00 +29°C° 0 mm 2 mps 759 mmHg 56%
12:00 +29°C° 0 mm 2 mps 759 mmHg 56%
13:00 +29°C° 0 mm 2 mps 758 mmHg 57%
14:00 +29°C° 0 mm 2 mps 758 mmHg 58%
15:00 +29°C° 0 mm 2 mps 758 mmHg 60%
16:00 +28°C° 0 mm 2 mps 757 mmHg 61%
17:00 +27°C° 0 mm 2 mps 758 mmHg 66%
18:00 +27°C° 0 mm 2 mps 758 mmHg 70%
19:00 +26°C° 0 mm 2 mps 758 mmHg 75%
20:00 +25°C° 0 mm 2 mps 758 mmHg 76%
21:00 +25°C° 0 mm 2 mps 758 mmHg 78%
22:00 +24°C° 0 mm 2 mps 758 mmHg 79%
23:00 +24°C° 0 mm 2 mps 758 mmHg 79%

17 July, Friday

Time Temperature Precipitation Wind Pressure Humidity
00:00 +24°C° 0 mm 2 mps 758 mmHg 79%
01:00 +23°C° 0 mm 2 mps 758 mmHg 79%
02:00 +23°C° 0 mm 2 mps 757 mmHg 79%
03:00 +23°C° 0 mm 2 mps 757 mmHg 79%
04:00 +23°C° 0 mm 2 mps 757 mmHg 78%
05:00 +24°C° 0 mm 2 mps 757 mmHg 72%
06:00 +26°C° 0 mm 1 mps 757 mmHg 66%
07:00 +28°C° 0 mm 1 mps 757 mmHg 60%
08:00 +29°C° 0 mm 1 mps 757 mmHg 56%
09:00 +30°C° 0 mm 1 mps 757 mmHg 51%
10:00 +31°C° 0 mm 1 mps 757 mmHg 47%
11:00 +31°C° 0 mm 2 mps 757 mmHg 48%
12:00 +30°C° 0 mm 2 mps 756 mmHg 49%
13:00 +30°C° 0 mm 3 mps 756 mmHg 50%
14:00 +30°C° 0 mm 3 mps 756 mmHg 51%
15:00 +30°C° 0 mm 3 mps 756 mmHg 53%
16:00 +29°C° 0 mm 3 mps 756 mmHg 54%
17:00 +28°C° 0 mm 3 mps 756 mmHg 59%
18:00 +27°C° 0 mm 2 mps 756 mmHg 63%
19:00 +26°C° 0 mm 2 mps 756 mmHg 68%
20:00 +26°C° 0 mm 2 mps 756 mmHg 71%
21:00 +25°C° 0 mm 2 mps 757 mmHg 73%
22:00 +24°C° 0 mm 2 mps 757 mmHg 76%
23:00 +24°C° 0 mm 2 mps 757 mmHg 75%

18 July, Saturday

Time Temperature Precipitation Wind Pressure Humidity
00:00 +24°C° 0 mm 2 mps 757 mmHg 75%
01:00 +24°C° 0 mm 2 mps 756 mmHg 74%
02:00 +24°C° 0 mm 2 mps 756 mmHg 75%
03:00 +23°C° 0 mm 2 mps 756 mmHg 76%
04:00 +23°C° 0 mm 2 mps 756 mmHg 77%
05:00 +25°C° 0 mm 2 mps 756 mmHg 72%
06:00 +26°C° 0 mm 1 mps 756 mmHg 66%
07:00 +28°C° 0 mm 1 mps 757 mmHg 61%
08:00 +28°C° 0 mm 1 mps 757 mmHg 58%
09:00 +29°C° 0 mm 2 mps 757 mmHg 55%
10:00 +30°C° 0 mm 2 mps 757 mmHg 51%
11:00 +30°C° 0 mm 3 mps 756 mmHg 52%
12:00 +30°C° 0 mm 3 mps 756 mmHg 52%
13:00 +30°C° 0 mm 4 mps 756 mmHg 52%
14:00 +30°C° 0 mm 4 mps 756 mmHg 53%
15:00 +30°C° 0 mm 4 mps 756 mmHg 53%
16:00 +30°C° 0 mm 4 mps 756 mmHg 53%
17:00 +29°C° 0 mm 4 mps 756 mmHg 59%
18:00 +27°C° 0 mm 4 mps 756 mmHg 65%
19:00 +26°C° 0 mm 5 mps 757 mmHg 71%
20:00 +26°C° 0 mm 4 mps 757 mmHg 72%
21:00 +25°C° 0 mm 4 mps 757 mmHg 73%
22:00 +25°C° 0 mm 4 mps 758 mmHg 74%
23:00 +23°C° 0 mm 4 mps 758 mmHg 75%

19 July, Sunday

Time Temperature Precipitation Wind Pressure Humidity
00:00 +23°C° 0 mm 4 mps 758 mmHg 76%
01:00 +23°C° 0 mm 4 mps 758 mmHg 77%
02:00 +22°C° 0 mm 4 mps 758 mmHg 78%
03:00 +22°C° 0 mm 4 mps 758 mmHg 78%
04:00 +22°C° 0 mm 3 mps 758 mmHg 79%
05:00 +24°C° 0 mm 3 mps 758 mmHg 72%
06:00 +26°C° 0 mm 3 mps 758 mmHg 65%
07:00 +27°C° 0 mm 2 mps 758 mmHg 58%
08:00 +28°C° 0 mm 3 mps 758 mmHg 54%
09:00 +30°C° 0 mm 4 mps 758 mmHg 51%
10:00 +32°C° 0 mm 5 mps 758 mmHg 47%
11:00 +32°C° 0 mm 5 mps 758 mmHg 48%
12:00 +32°C° 0 mm 6 mps 758 mmHg 49%
13:00 +32°C° 0 mm 6 mps 758 mmHg 50%
14:00 +32°C° 0 mm 6 mps 758 mmHg 52%
15:00 +30°C° 0 mm 6 mps 757 mmHg 54%
16:00 +30°C° 0 mm 6 mps 757 mmHg 55%
17:00 +29°C° 0 mm 6 mps 757 mmHg 60%
18:00 +28°C° 0 mm 5 mps 757 mmHg 64%
19:00 +27°C° 0 mm 5 mps 758 mmHg 68%
20:00 +26°C° 0 mm 5 mps 758 mmHg 69%
21:00 +25°C° 0 mm 5 mps 758 mmHg 70%
22:00 +25°C° 0 mm 4 mps 758 mmHg 71%
23:00 +25°C° 0 mm 4 mps 758 mmHg 72%
Show more